Content
SEND FEEDBACK

Daily
Averages
Monthly
Summary
United Kingdom

STORNOWAY, SCOTLAND


Home > Europe > United Kingdom > Scotland
Elevation: 43 feet     Latitude: 58 13N     Longitude: 006 19W

WEATHER
 
SELECT A DAY
Number of Records: 239,525;   Date Range: 7/1/96 - 9/19/14
 
SHARE

PRINT THIS DATA

[ ← Previous Day ]
WEATHER ALMANAC - MARCH 23, 2013
[ Next Day → ]
[ °C ]   °F
Weather ElementAverageHighLow
Temperature36.5 °F39.2 °F (11:20 am)35 °F (2:50 am)
Dewpoint26.6 °F32 °F (9:50 am)24 °F (5:50 pm)
Humidity65.7 %81 % (9:50 am)50 % (11:50 am)
Barometer30.17 in30.27 in (9:20 pm)30.06 in (12:50 am)
Wind Speed25.9 mph35.7 mph (2:50 am)
Wind Gust42.6 mph (8:20 am)
Weather ElementAverage
Visibility7.2 mi
Wind DirectionESE (103.5 °)

Weather ElementTotal
Precipitation---
Heating Degree Days27.9 (Base 65)
Averaged from 55 records on March 23, 2013
WEATHER CONDITIONS BREAKOUT
WIND DIRECTION BREAKOUT
WEATHER BY HOUR - MARCH 23, 2013
[ °C ]   °F
Local TimeTemperatureDewpointHumidityBarometerVisibilityWind DirectionWind SpeedGust SpeedPrecipitationEventsConditions
12:50 AM35.6 °F26.6 °F70 %30.06 in6.2 miESE (110°)28.8 mph40.3 mphPartly Cloudy
1:20 AM35.6 °F26.6 °F70 %30.06 in6.2 miESE (110°)27.6 mph40.3 mphScattered Clouds
1:50 AM35.6 °F24.8 °F65 %30.06 in6.2 miESE (110°)28.8 mphScattered Clouds
2:20 AM35.6 °F26.6 °F70 %30.06 in6.2 miESE (110°)28.8 mphScattered Clouds
2:50 AM35.0 °F25.0 °F56 %30.08 in16.0 miEast (100°)35.7 mphScattered Clouds
2:50 AM35.6 °F26.6 °F70 %30.09 in6.2 miEast (100°)25.3 mph39.1 mphScattered Clouds
3:20 AM35.6 °F26.6 °F70 %30.09 in6.2 miEast (100°)27.6 mphMostly Cloudy
3:50 AM35.6 °F26.6 °F70 %30.09 in6.2 miESE (110°)28.8 mphScattered Clouds
4:20 AM35.6 °F26.6 °F70 %30.09 in6.2 miESE (110°)26.5 mph38.0 mphMostly Cloudy
4:50 AM35.6 °F26.6 °F70 %30.09 in6.2 miESE (110°)25.3 mphScattered Clouds
5:20 AM35.6 °F26.6 °F70 %30.09 in6.2 miEast (100°)27.6 mphScattered Clouds
5:50 AM35.0 °F27.0 °F61 %30.10 in11.0 miEast (100°)33.4 mph
5:50 AM35.6 °F26.6 °F70 %30.09 in6.2 miEast (100°)26.5 mphScattered Clouds
6:20 AM37.4 °F30.2 °F75 %30.09 in6.2 miEast (100°)24.2 mph35.7 mphScattered Clouds
6:50 AM37.4 °F30.2 °F75 %30.12 in6.2 miEast (100°)25.3 mph36.8 mphScattered Clouds
7:20 AM37.4 °F30.2 °F75 %30.12 in6.2 miESE (110°)25.3 mph36.8 mphScattered Clouds
7:50 AM37.4 °F30.2 °F75 %30.12 in6.2 miESE (110°)28.8 mphScattered Clouds
8:20 AM37.4 °F30.2 °F75 %30.15 in6.2 miEast (100°)28.8 mph42.6 mphScattered Clouds
8:50 AM36.0 °F27.0 °F58 %30.15 in11.0 miESE (110°)32.2 mphScattered Clouds
8:50 AM37.4 °F30.2 °F75 %30.15 in6.2 miESE (110°)27.6 mphScattered Clouds
9:20 AM37.4 °F30.2 °F75 %30.15 in6.2 miESE (110°)27.6 mphScattered Clouds
9:50 AM37.4 °F32.0 °F81 %30.18 in6.2 miESE (110°)27.6 mphMostly Cloudy
10:20 AM37.4 °F26.6 °F65 %30.18 in6.2 miESE (110°)27.6 mphMostly Cloudy
10:50 AM37.4 °F26.6 °F65 %30.18 in6.2 miEast (100°)27.6 mph39.1 mphScattered Clouds
11:20 AM39.2 °F26.6 °F61 %30.18 in6.2 miESE (110°)26.5 mph39.1 mphMostly Cloudy
11:50 AM38.0 °F26.0 °F50 %30.19 in14.0 miEast (100°)32.2 mphPartly Cloudy
11:50 AM39.2 °F26.6 °F61 %30.18 in6.2 miESE (110°)24.2 mphMostly Cloudy
12:20 PM39.2 °F26.6 °F61 %30.21 in6.2 miESE (110°)26.5 mphMostly Cloudy
12:50 PM37.4 °F26.6 °F65 %30.18 in6.2 miEast (100°)25.3 mphMostly Cloudy
1:20 PM37.4 °F26.6 °F65 %30.21 in6.2 miEast (100°)26.5 mphMostly Cloudy
1:50 PM39.2 °F26.6 °F61 %30.21 in6.2 miESE (110°)24.2 mphScattered Clouds
2:20 PM37.4 °F26.6 °F65 %30.21 in6.2 miEast (100°)23.0 mph34.5 mphScattered Clouds
2:50 PM37.0 °F26.0 °F52 %30.19 in18.0 miEast (100°)29.9 mphPartly Cloudy
2:50 PM39.2 °F26.6 °F61 %30.18 in6.2 miEast (100°)25.3 mphScattered Clouds
3:20 PM39.2 °F26.6 °F61 %30.21 in6.2 miESE (110°)23.0 mphMostly Cloudy
3:50 PM37.4 °F24.8 °F60 %30.21 in6.2 miEast (100°)26.5 mphMostly Cloudy
4:20 PM37.4 °F26.6 °F65 %30.21 in6.2 miEast (100°)20.7 mphScattered Clouds
4:50 PM37.4 °F24.8 °F60 %30.21 in6.2 miESE (110°)21.9 mphMostly Cloudy
5:20 PM35.6 °F26.6 °F70 %30.21 in6.2 miEast (100°)20.7 mph33.4 mphMostly Cloudy
5:50 PM35.0 °F24.0 °F54 %30.22 in13.0 miEast (100°)29.9 mphPartly Cloudy
5:50 PM35.6 °F26.6 °F70 %30.21 in6.2 miEast (100°)23.0 mphMostly Cloudy
6:20 PM35.6 °F26.6 °F70 %30.21 in6.2 miEast (100°)23.0 mphMostly Cloudy
6:50 PM35.6 °F24.8 °F65 %30.24 in6.2 miEast (100°)21.9 mphMostly Cloudy
7:20 PM35.6 °F26.6 °F70 %30.24 in6.2 miEast (100°)23.0 mphMostly Cloudy
7:50 PM35.6 °F24.8 °F65 %30.24 in6.2 miEast (100°)21.9 mphMostly Cloudy
8:20 PM35.6 °F24.8 °F65 %30.24 in6.2 miEast (100°)21.9 mphMostly Cloudy
8:50 PM35.0 °F24.0 °F52 %30.25 in11.0 miEast (100°)29.9 mphMostly Cloudy
8:50 PM35.6 °F24.8 °F65 %30.24 in6.2 miEast (100°)23.0 mphMostly Cloudy
9:20 PM35.6 °F24.8 °F65 %30.27 in6.2 miEast (90°)21.9 mph33.4 mphMostly Cloudy
9:50 PM35.6 °F24.8 °F65 %30.27 in6.2 miEast (100°)20.7 mphMostly Cloudy
10:20 PM35.6 °F24.8 °F65 %30.27 in6.2 miEast (100°)20.7 mphOvercast
10:50 PM35.6 °F24.8 °F65 %30.27 in6.2 miEast (100°)20.7 mphMostly Cloudy
11:20 PM35.6 °F24.8 °F65 %30.27 in6.2 miEast (100°)24.2 mphMostly Cloudy
11:50 PM35.0 °F24.0 °F52 %30.27 in12.0 miEast (100°)28.8 mphMostly Cloudy
11:50 PM35.6 °F24.8 °F65 %30.27 in6.2 miEast (100°)21.9 mph34.5 mphMostly Cloudy
Hourly data recorded from EGPO, located miles away from Stornoway, Scotland







STORIES FROM OUR PARTNERS